Weather Underground History

Daily Summary for July 20, 2018 Units:  Metric    English   Both
« Previous Day
Next Day »
Daily Weekly Monthly Yearly Custom
  Current: High: Low: Average:
Temperature: 22.0 °C 24.6 °C 11.9 °C 17.7 °C
Dew Point: 11.9 °C 12.8 °C 7.9 °C 10.2 °C
Humidity: 53% 81% 46% 63%
Wind Speed: 9.7km/h 16.1km/h 0.0km/h 1.8km/h
Wind Gust: 9.7km/h 19.3km/h - -
WindWest - - West
Pressure: 1011.8 hPa 1015.7 hPa 1011.7 hPa -
Precipitation: 0.0 mm      
Historical Graphs
 
 
Tabular Data for July 20, 2018
Time Temperature Dew Point Pressure Wind Wind Speed Wind Gust Humidity Rainfall Rate (Hourly) solar
00:04 16.6 °C 10.0 °C 1015.6 hPa NNE 1.6 km/h 4.8 km/h 65% 0.0 mm 0.00 W/m2
00:09 16.5 °C 9.9 °C 1015.7 hPa Calm     65% 0.0 mm 0.00 W/m2
00:14 16.3 °C 9.9 °C 1015.6 hPa Calm   3.2 km/h 66% 0.0 mm 0.00 W/m2
00:19 16.2 °C 9.9 °C 1015.6 hPa Calm   1.6 km/h 66% 0.0 mm 0.00 W/m2
00:24 16.2 °C 9.8 °C 1015.6 hPa Calm   3.2 km/h 66% 0.0 mm 0.00 W/m2
00:29 16.1 °C 9.9 °C 1015.6 hPa Calm     67% 0.0 mm 0.00 W/m2
00:34 15.9 °C 9.8 °C 1015.5 hPa Calm   1.6 km/h 67% 0.0 mm 0.00 W/m2
00:39 15.9 °C 9.6 °C 1015.5 hPa Calm   3.2 km/h 66% 0.0 mm 0.00 W/m2
00:44 15.8 °C 9.7 °C 1015.5 hPa Calm   1.6 km/h 67% 0.0 mm 0.00 W/m2
00:49 15.8 °C 9.7 °C 1015.5 hPa Calm   3.2 km/h 67% 0.0 mm 0.00 W/m2
00:54 15.7 °C 9.6 °C 1015.5 hPa Calm     67% 0.0 mm 0.00 W/m2
00:59 15.6 °C 9.4 °C 1015.5 hPa Calm     67% 0.0 mm 0.00 W/m2
01:04 15.5 °C 9.4 °C 1015.6 hPa Calm     67% 0.0 mm 0.00 W/m2
01:09 15.4 °C 9.3 °C 1015.6 hPa Calm     67% 0.0 mm 0.00 W/m2
01:15 15.4 °C 9.3 °C 1015.6 hPa Calm     67% 0.0 mm 0.00 W/m2
01:19 15.3 °C 9.2 °C 1015.6 hPa Calm     67% 0.0 mm 0.00 W/m2
01:24 15.3 °C 9.2 °C 1015.6 hPa Calm     67% 0.0 mm 0.00 W/m2
01:29 15.3 °C 9.2 °C 1015.6 hPa Calm   4.8 km/h 67% 0.0 mm 0.00 W/m2
01:34 15.3 °C 9.2 °C 1015.6 hPa Calm     67% 0.0 mm 0.00 W/m2
01:39 15.2 °C 9.1 °C 1015.6 hPa Calm     67% 0.0 mm 0.00 W/m2
01:44 15.1 °C 9.0 °C 1015.5 hPa Calm     67% 0.0 mm 0.00 W/m2
01:49 15.0 °C 8.9 °C 1015.5 hPa Calm     67% 0.0 mm 0.00 W/m2
01:54 14.9 °C 8.8 °C 1015.5 hPa Calm     67% 0.0 mm 0.00 W/m2
01:59 14.7 °C 8.9 °C 1015.6 hPa Calm   1.6 km/h 68% 0.0 mm 0.00 W/m2
02:04 14.6 °C 8.7 °C 1015.5 hPa Calm     68% 0.0 mm 0.00 W/m2
02:09 14.3 °C 8.7 °C 1015.5 hPa Calm     69% 0.0 mm 0.00 W/m2
02:14 14.2 °C 8.8 °C 1015.4 hPa Calm     70% 0.0 mm 0.00 W/m2
02:19 14.0 °C 8.6 °C 1015.4 hPa Calm     70% 0.0 mm 0.00 W/m2
02:24 13.9 °C 8.5 °C 1015.4 hPa Calm     70% 0.0 mm 0.00 W/m2
02:29 13.7 °C 8.6 °C 1015.4 hPa Calm     71% 0.0 mm 0.00 W/m2
02:34 13.6 °C 8.4 °C 1015.4 hPa Calm     71% 0.0 mm 0.00 W/m2
02:39 13.6 °C 8.6 °C 1015.5 hPa Calm     72% 0.0 mm 0.00 W/m2
02:44 13.4 °C 8.4 °C 1015.3 hPa Calm     72% 0.0 mm 0.00 W/m2
02:49 13.3 °C 8.6 °C 1015.3 hPa Calm     73% 0.0 mm 0.00 W/m2
02:54 13.2 °C 8.5 °C 1015.2 hPa Calm     73% 0.0 mm 0.00 W/m2
02:59 13.1 °C 8.6 °C 1015.2 hPa Calm     74% 0.0 mm 0.00 W/m2
03:04 13.1 °C 8.6 °C 1015.1 hPa Calm     74% 0.0 mm 0.00 W/m2
03:09 12.9 °C 8.4 °C 1015.1 hPa Calm     74% 0.0 mm 0.00 W/m2
03:14 12.9 °C 8.6 °C 1015.0 hPa Calm     75% 0.0 mm 0.00 W/m2
03:19 12.9 °C 8.4 °C 1015.0 hPa Calm     74% 0.0 mm 0.00 W/m2
03:24 12.9 °C 8.4 °C 1015.0 hPa Calm     74% 0.0 mm 0.00 W/m2
03:29 13.1 °C 8.6 °C 1015.0 hPa Calm     74% 0.0 mm 0.00 W/m2
03:34 13.0 °C 8.4 °C 1015.0 hPa Calm     74% 0.0 mm 0.00 W/m2
03:39 12.9 °C 8.4 °C 1015.0 hPa Calm     74% 0.0 mm 0.00 W/m2
03:44 12.8 °C 8.5 °C 1014.9 hPa Calm     75% 0.0 mm 0.00 W/m2
03:49 12.8 °C 8.4 °C 1014.9 hPa Calm     75% 0.0 mm 0.00 W/m2
03:54 12.7 °C 8.4 °C 1014.8 hPa Calm     75% 0.0 mm 0.00 W/m2
03:59 12.6 °C 8.5 °C 1014.8 hPa Calm     76% 0.0 mm 0.00 W/m2
04:04 12.6 °C 8.4 °C 1014.8 hPa Calm     76% 0.0 mm 0.00 W/m2
04:09 12.4 °C 8.3 °C 1014.7 hPa Calm     76% 0.0 mm 0.00 W/m2
04:14 12.3 °C 8.4 °C 1014.8 hPa Calm     77% 0.0 mm 0.00 W/m2
04:19 12.2 °C 8.3 °C 1014.8 hPa Calm     77% 0.0 mm 0.00 W/m2
04:24 12.2 °C 8.3 °C 1014.8 hPa Calm     77% 0.0 mm 0.00 W/m2
04:29 12.1 °C 8.2 °C 1014.8 hPa Calm     77% 0.0 mm 0.00 W/m2
04:34 12.0 °C 8.3 °C 1014.6 hPa Calm     78% 0.0 mm 0.00 W/m2
04:39 11.9 °C 8.2 °C 1014.6 hPa Calm     78% 0.0 mm 0.00 W/m2
04:44 12.1 °C 8.2 °C 1014.7 hPa Calm     77% 0.0 mm 0.00 W/m2
04:49 12.1 °C 8.2 °C 1014.6 hPa Calm     77% 0.0 mm 0.00 W/m2
04:54 12.2 °C 8.1 °C 1014.7 hPa Calm     76% 0.0 mm 0.00 W/m2
04:59 12.2 °C 8.1 °C 1014.7 hPa Calm     76% 0.0 mm 0.00 W/m2
05:04 12.2 °C 8.1 °C 1014.7 hPa Calm     76% 0.0 mm 0.00 W/m2
05:09 12.1 °C 8.2 °C 1014.6 hPa Calm     77% 0.0 mm 0.00 W/m2
05:14 12.0 °C 8.1 °C 1014.6 hPa Calm     77% 0.0 mm 5.00 W/m2
05:19 12.1 °C 7.9 °C 1014.5 hPa Calm     76% 0.0 mm 9.00 W/m2
05:24 12.1 °C 7.9 °C 1014.4 hPa Calm     76% 0.0 mm 11.00 W/m2
05:29 12.0 °C 7.9 °C 1014.4 hPa Calm     76% 0.0 mm 12.00 W/m2
05:34 12.1 °C 7.9 °C 1014.3 hPa Calm     76% 0.0 mm 16.00 W/m2
05:39 12.1 °C 7.9 °C 1014.3 hPa Calm     76% 0.0 mm 18.00 W/m2
05:44 12.2 °C 8.1 °C 1014.2 hPa Calm     76% 0.0 mm 19.00 W/m2
05:49 12.3 °C 8.1 °C 1014.1 hPa Calm     75% 0.0 mm 23.00 W/m2
05:54 12.4 °C 8.1 °C 1014.1 hPa Calm     75% 0.0 mm 26.00 W/m2
05:59 12.5 °C 8.2 °C 1014.2 hPa Calm     75% 0.0 mm 30.00 W/m2
06:04 12.5 °C 8.2 °C 1014.3 hPa Calm     75% 0.0 mm 32.00 W/m2
06:09 12.6 °C 8.4 °C 1014.2 hPa Calm     76% 0.0 mm 35.00 W/m2
06:14 12.6 °C 8.6 °C 1014.2 hPa Calm     77% 0.0 mm 40.00 W/m2
06:19 12.6 °C 8.6 °C 1014.2 hPa Calm     77% 0.0 mm 42.00 W/m2
06:24 12.6 °C 8.7 °C 1014.3 hPa Calm     77% 0.0 mm 47.00 W/m2
06:29 12.7 °C 9.1 °C 1014.3 hPa Calm     79% 0.0 mm 49.00 W/m2
06:34 12.7 °C 8.9 °C 1014.3 hPa Calm     78% 0.0 mm 47.00 W/m2
06:39 12.7 °C 9.2 °C 1014.3 hPa Calm     79% 0.0 mm 51.00 W/m2
06:44 12.8 °C 9.7 °C 1014.2 hPa Calm     81% 0.0 mm 88.00 W/m2
06:49 12.9 °C 9.4 °C 1014.2 hPa Calm     79% 0.0 mm 86.00 W/m2
06:54 13.1 °C 9.5 °C 1014.3 hPa Calm     79% 0.0 mm 137.00 W/m2
06:59 13.3 °C 9.7 °C 1014.2 hPa Calm     79% 0.0 mm 88.00 W/m2
07:04 13.4 °C 9.7 °C 1014.1 hPa Calm     78% 0.0 mm 86.00 W/m2
07:09 13.6 °C 9.8 °C 1014.2 hPa Calm     78% 0.0 mm 137.00 W/m2
07:14 13.8 °C 10.2 °C 1014.1 hPa Calm     79% 0.0 mm 153.00 W/m2
07:19 14.1 °C 10.3 °C 1014.1 hPa Calm     78% 0.0 mm 243.00 W/m2
07:24 14.3 °C 10.5 °C 1014.2 hPa Calm     78% 0.0 mm 272.00 W/m2
07:29 14.6 °C 10.4 °C 1014.2 hPa Calm     76% 0.0 mm 264.00 W/m2
07:34 14.9 °C 10.8 °C 1014.2 hPa Calm     76% 0.0 mm 276.00 W/m2
07:39 15.3 °C 10.7 °C 1014.2 hPa Calm     74% 0.0 mm 274.00 W/m2
07:44 15.7 °C 10.7 °C 1014.2 hPa Calm     72% 0.0 mm 304.00 W/m2
07:49 16.3 °C 10.2 °C 1014.2 hPa Calm     67% 0.0 mm 318.00 W/m2
07:54 17.0 °C 10.1 °C 1014.1 hPa Calm     64% 0.0 mm 323.00 W/m2
07:59 17.6 °C 10.2 °C 1014.1 hPa Calm     62% 0.0 mm 315.00 W/m2
08:04 17.9 °C 10.3 °C 1014.2 hPa Calm     61% 0.0 mm 325.00 W/m2
08:09 18.3 °C 10.2 °C 1014.2 hPa Calm     59% 0.0 mm 388.00 W/m2
08:14 18.7 °C 10.6 °C 1014.2 hPa Calm     59% 0.0 mm 218.00 W/m2
08:19 18.9 °C 9.9 °C 1014.2 hPa Calm     56% 0.0 mm 230.00 W/m2
08:24 19.0 °C 10.6 °C 1014.1 hPa Calm     58% 0.0 mm 220.00 W/m2
08:29 19.0 °C 10.0 °C 1014.0 hPa Calm     56% 0.0 mm 406.00 W/m2
08:34 19.2 °C 10.2 °C 1014.1 hPa Calm     56% 0.0 mm 445.00 W/m2
08:39 19.5 °C 9.7 °C 1014.1 hPa Calm     53% 0.0 mm 434.00 W/m2
08:44 19.7 °C 10.1 °C 1014.1 hPa Calm     54% 0.0 mm 455.00 W/m2
08:49 19.9 °C 10.3 °C 1014.1 hPa Calm     54% 0.0 mm 466.00 W/m2
08:54 20.0 °C 10.1 °C 1014.0 hPa Calm     53% 0.0 mm 496.00 W/m2
08:59 20.3 °C 11.2 °C 1014.0 hPa Calm     56% 0.0 mm 497.00 W/m2
09:04 20.7 °C 10.7 °C 1013.9 hPa Calm     53% 0.0 mm 520.00 W/m2
09:09 20.8 °C 10.6 °C 1013.9 hPa Calm     52% 0.0 mm 545.00 W/m2
09:14 21.0 °C 10.4 °C 1013.9 hPa Calm     51% 0.0 mm 541.00 W/m2
09:19 21.2 °C 10.6 °C 1013.9 hPa Calm     51% 0.0 mm 587.00 W/m2
09:24 21.0 °C 10.2 °C 1013.9 hPa Calm     50% 0.0 mm 612.00 W/m2
09:29 20.9 °C 10.1 °C 1013.9 hPa Calm   6.4 km/h 50% 0.0 mm 466.00 W/m2
09:34 20.7 °C 10.5 °C 1013.9 hPa North 4.8 km/h 4.8 km/h 52% 0.0 mm 438.00 W/m2
09:39 20.6 °C 10.3 °C 1013.9 hPa NNW 4.8 km/h 4.8 km/h 52% 0.0 mm 320.00 W/m2
09:44 20.4 °C 11.1 °C 1013.8 hPa NNW 4.8 km/h 4.8 km/h 55% 0.0 mm 563.00 W/m2
09:49 20.5 °C 11.2 °C 1013.8 hPa NW 4.8 km/h 8.0 km/h 55% 0.0 mm 636.00 W/m2
09:54 20.7 °C 10.8 °C 1013.7 hPa Calm     53% 0.0 mm 619.00 W/m2
09:59 20.9 °C 11.2 °C 1013.7 hPa Calm   4.8 km/h 54% 0.0 mm 269.00 W/m2
10:04 20.8 °C 10.8 °C 1013.6 hPa Calm     53% 0.0 mm 671.00 W/m2
10:09 20.9 °C 11.5 °C 1013.6 hPa Calm   6.4 km/h 55% 0.0 mm 673.00 W/m2
10:14 21.1 °C 11.7 °C 1013.5 hPa Calm   4.8 km/h 55% 0.0 mm 663.00 W/m2
10:19 21.3 °C 11.1 °C 1013.4 hPa NW 1.6 km/h 3.2 km/h 52% 0.0 mm 705.00 W/m2
10:24 21.4 °C 10.9 °C 1013.4 hPa Calm   4.8 km/h 51% 0.0 mm 457.00 W/m2
10:29 21.4 °C 11.7 °C 1013.4 hPa WNW 1.6 km/h 8.0 km/h 54% 0.0 mm 483.00 W/m2
10:34 21.3 °C 11.0 °C 1013.4 hPa WNW 3.2 km/h 3.2 km/h 52% 0.0 mm 404.00 W/m2
10:39 21.1 °C 11.4 °C 1013.4 hPa WNW 3.2 km/h 3.2 km/h 54% 0.0 mm 413.00 W/m2
10:44 21.1 °C 11.1 °C 1013.3 hPa WNW 1.6 km/h 1.6 km/h 53% 0.0 mm 432.00 W/m2
10:49 21.2 °C 11.8 °C 1013.3 hPa West 8.0 km/h 8.0 km/h 55% 0.0 mm 408.00 W/m2
10:54 21.2 °C 11.2 °C 1013.3 hPa WSW 4.8 km/h 12.9 km/h 53% 0.0 mm 554.00 W/m2
10:59 21.2 °C 11.6 °C 1013.3 hPa WSW 6.4 km/h 11.3 km/h 54% 0.0 mm 693.00 W/m2
11:04 21.3 °C 11.3 °C 1013.2 hPa WSW 6.4 km/h 9.7 km/h 53% 0.0 mm 786.00 W/m2
11:09 21.6 °C 11.8 °C 1013.3 hPa SW 3.2 km/h 8.0 km/h 54% 0.0 mm 656.00 W/m2
11:14 21.7 °C 11.7 °C 1013.2 hPa Calm   8.0 km/h 53% 0.0 mm 729.00 W/m2
11:19 21.9 °C 11.9 °C 1013.2 hPa WSW 11.3 km/h 11.3 km/h 53% 0.0 mm 830.00 W/m2
11:25 22.2 °C 11.8 °C 1013.2 hPa SSW 3.2 km/h 9.7 km/h 52% 0.0 mm 577.00 W/m2
11:29 22.2 °C 11.3 °C 1013.2 hPa Calm   4.8 km/h 50% 0.0 mm 686.00 W/m2
11:34 22.3 °C 11.7 °C 1013.1 hPa SW 8.0 km/h 12.9 km/h 51% 0.0 mm 779.00 W/m2
11:39 22.3 °C 12.3 °C 1013.1 hPa West 3.2 km/h 11.3 km/h 53% 0.0 mm 694.00 W/m2
11:44 22.4 °C 11.2 °C 1013.0 hPa WNW 6.4 km/h 8.0 km/h 49% 0.0 mm 568.00 W/m2
11:49 22.4 °C 11.4 °C 1012.9 hPa WSW 6.4 km/h 11.3 km/h 50% 0.0 mm 510.00 W/m2
11:54 22.4 °C 11.7 °C 1013.0 hPa West 3.2 km/h 11.3 km/h 51% 0.0 mm 480.00 W/m2
11:59 22.3 °C 12.0 °C 1012.9 hPa WSW 4.8 km/h 9.7 km/h 52% 0.0 mm 628.00 W/m2
12:04 22.4 °C 12.1 °C 1012.8 hPa WSW 3.2 km/h 6.4 km/h 52% 0.0 mm 617.00 W/m2
12:09 22.5 °C 12.2 °C 1012.9 hPa WSW 1.6 km/h 9.7 km/h 52% 0.0 mm 846.00 W/m2
12:14 22.6 °C 11.9 °C 1012.8 hPa WSW 4.8 km/h 19.3 km/h 51% 0.0 mm 840.00 W/m2
12:19 22.7 °C 11.7 °C 1012.8 hPa SW 3.2 km/h 9.7 km/h 50% 0.0 mm 833.00 W/m2
12:24 22.8 °C 12.2 °C 1012.8 hPa WNW 4.8 km/h 11.3 km/h 51% 0.0 mm 823.00 W/m2
12:29 23.0 °C 12.0 °C 1012.7 hPa Calm   9.7 km/h 50% 0.0 mm 824.00 W/m2
12:34 23.1 °C 11.7 °C 1012.7 hPa SSW 12.9 km/h 14.5 km/h 49% 0.0 mm 846.00 W/m2
12:39 23.2 °C 12.5 °C 1012.6 hPa Calm   8.0 km/h 51% 0.0 mm 715.00 W/m2
12:44 23.6 °C 12.2 °C 1012.5 hPa WSW 3.2 km/h 14.5 km/h 49% 0.0 mm 795.00 W/m2
12:49 23.7 °C 12.3 °C 1012.5 hPa Calm   11.3 km/h 49% 0.0 mm 923.00 W/m2
12:54 23.8 °C 12.4 °C 1012.4 hPa SW 3.2 km/h 11.3 km/h 49% 0.0 mm 974.00 W/m2
12:59 23.8 °C 12.2 °C 1012.4 hPa Calm   12.9 km/h 48% 0.0 mm 835.00 W/m2
13:04 23.8 °C 12.8 °C 1012.3 hPa WSW 4.8 km/h 12.9 km/h 50% 0.0 mm 904.00 W/m2
13:09 24.3 °C 12.2 °C 1012.3 hPa WSW 8.0 km/h 16.1 km/h 47% 0.0 mm 960.00 W/m2
13:14 24.6 °C 12.5 °C 1012.2 hPa NW 8.0 km/h 12.9 km/h 47% 0.0 mm 911.00 W/m2
13:19 24.4 °C 12.3 °C 1012.2 hPa WNW 6.4 km/h 8.0 km/h 47% 0.0 mm 780.00 W/m2
13:24 24.4 °C 12.1 °C 1012.1 hPa WSW 3.2 km/h 4.8 km/h 46% 0.0 mm 436.00 W/m2
13:29 24.2 °C 12.5 °C 1012.2 hPa WSW 3.2 km/h 12.9 km/h 48% 0.0 mm 721.00 W/m2
13:34 24.3 °C 12.6 °C 1012.1 hPa Calm   8.0 km/h 48% 0.0 mm 554.00 W/m2
13:39 24.2 °C 12.2 °C 1012.0 hPa SW 8.0 km/h 14.5 km/h 47% 0.0 mm 348.00 W/m2
13:44 23.8 °C 12.1 °C 1012.1 hPa WSW 16.1 km/h 17.7 km/h 48% 0.0 mm 320.00 W/m2
13:49 23.4 °C 12.1 °C 1012.1 hPa WSW 6.4 km/h 12.9 km/h 49% 0.0 mm 343.00 W/m2
13:54 23.3 °C 12.3 °C 1012.1 hPa SW 9.7 km/h 16.1 km/h 50% 0.0 mm 497.00 W/m2
13:59 23.3 °C 12.3 °C 1012.1 hPa WSW 8.0 km/h 14.5 km/h 50% 0.0 mm 478.00 W/m2
14:04 23.4 °C 12.4 °C 1012.0 hPa SW 4.8 km/h 12.9 km/h 50% 0.0 mm 367.00 W/m2
14:09 23.4 °C 12.1 °C 1012.0 hPa WNW 6.4 km/h 11.3 km/h 49% 0.0 mm 343.00 W/m2
14:14 23.3 °C 12.3 °C 1012.0 hPa WSW 4.8 km/h 8.0 km/h 50% 0.0 mm 362.00 W/m2
14:19 23.3 °C 11.9 °C 1012.0 hPa West 4.8 km/h 12.9 km/h 49% 0.0 mm 339.00 W/m2
14:24 23.2 °C 12.2 °C 1012.0 hPa WNW 9.7 km/h 12.9 km/h 50% 0.0 mm 281.00 W/m2
14:29 23.1 °C 11.8 °C 1012.0 hPa WSW 12.9 km/h 12.9 km/h 49% 0.0 mm 216.00 W/m2
14:34 22.8 °C 11.8 °C 1011.8 hPa WNW 8.0 km/h 11.3 km/h 50% 0.0 mm 185.00 W/m2
14:39 22.7 °C 12.0 °C 1011.9 hPa West 6.4 km/h 9.7 km/h 51% 0.0 mm 178.00 W/m2
14:44 22.5 °C 12.2 °C 1011.9 hPa WSW 8.0 km/h 8.0 km/h 52% 0.0 mm 183.00 W/m2
14:49 22.4 °C 11.7 °C 1011.9 hPa NW 1.6 km/h 11.3 km/h 51% 0.0 mm 163.00 W/m2
14:54 22.3 °C 11.7 °C 1011.9 hPa WNW 3.2 km/h 8.0 km/h 51% 0.0 mm 151.00 W/m2
14:59 22.2 °C 12.1 °C 1011.9 hPa Calm   8.0 km/h 53% 0.0 mm 149.00 W/m2
15:04 22.1 °C 11.7 °C 1011.8 hPa WNW 8.0 km/h 9.7 km/h 52% 0.0 mm 146.00 W/m2
15:09 22.1 °C 11.7 °C 1011.8 hPa West 3.2 km/h 14.5 km/h 52% 0.0 mm 144.00 W/m2
15:14 22.0 °C 11.7 °C 1011.7 hPa WSW 3.2 km/h 11.3 km/h 52% 0.0 mm 169.00 W/m2
15:19 21.9 °C 11.9 °C 1011.7 hPa WNW 8.0 km/h 8.0 km/h 53% 0.0 mm 188.00 W/m2
15:24 22.0 °C 11.9 °C 1011.8 hPa West 9.7 km/h 9.7 km/h 53% 0.0 mm 192.00 W/m2
Compliments of Weather Underground - 3.5 mb